342  
ASUS44 KLCH 071010  
RWRLCH  
REGIONAL WEATHER ROUNDUP  
NATIONAL WEATHER SERVICE LAKE CHARLES LA  
400 AM CST TUE FEB 07 2023  
 
NOTE: "FAIR" INDICATES FEW OR NO CLOUDS BELOW 12,000 FEET WITH NO  
SIGNIFICANT WEATHER AND/OR S TO VISIBILITY
.  
 
ACROSS SOUTHEAST TEXAS  
 
CITY SKY/WX TMP DP RH WIND PRES REMARKS
 
BEAUMONT MOCLDY 61 59 93 SE12 30.00S  
BEAUMONT CITY CLOUDY 60 59 97 CALM 30.00S  
ORANGE PTSUNNY 62 59 91 SE6 30.03S  
JASPER PTCLDY 50 50 100 CALM 30.01S  

 
 
ACROSS CENTRAL LOUISIANA  
 
CITY SKY/WX TMP DP RH WIND PRES REMARKS
 
LEESVILLE MOCLDY 53 51 96 E3 30.04R  
FULLERTON FAIR 55 51 86 CALM 30.03R  
ALEXANDRIA INT CLEAR 52 48 86 E5 30.05R  
ESLER FIELD CLEAR 44 44 100 CALM 30.07R  
DERIDDER FAIR 54 54 99 E3 30.05S  
OAKDALE MOSUNNY 54 50 87 CALM 30.05R  
OPELOUSAS FAIR 55 51 89 E5 30.08R  

 
 
ACROSS SOUTHWEST AND SOUTH CENTRAL LOUISIANA  
 
CITY SKY/WX TMP DP RH WIND PRES REMARKS
 
DEQUINCY PTSUNNY 56 54 94 CALM 30.04R  
SULPHUR PTSUNNY 58 57 97 E6 30.04S  
LAKE CHARLES CLEAR 56 55 97 SE8 30.03S  
CHENNAULT INT PTCLDY 57 55 92 SE5 30.03S  
JENNINGS FAIR 58 56 96 SE10 30.05S  
LAFAYETTE PTCLDY 57 53 86 CALM 30.07S  
NEW IBERIA CLOUDY 55 52 89 E3 30.07S  
ABBEVILLE CLOUDY 54 50 86 CALM 30.08S  
PATTERSON PTCLDY 53 52 96 E3 30.08S FOG  
SALT POINT N/A 55 55 100 CALM 30.06S  

 
 
SELECTED SITES ACROSS THE REGION  
 
CITY SKY/WX TMP DP RH WIND PRES REMARKS
 
HOUSTON BUSH CLOUDY 60 58 92 E7 29.96F  
HOUSTON HOBBY MOCLDY 64 60 87 SE9 29.96S  
GALVESTON CLOUDY 64 61 90 SE10 29.98R  
COLLEGE STAT CLOUDY 64 59 83 SE9 29.94S  
CONROE CLOUDY 60 58 92 SE6 29.98S  
HUNTSVILLE CLOUDY 62 57 83 SE6 29.96F  
LUFKIN CLOUDY 58 56 93 SE8 30.00R  
SHREVEPORT CLOUDY 55 48 76 SE7 30.04R  
MONROE CLEAR 49 46 90 CALM 30.09S  
NATCHEZ MS PTCLDY 52 50 93 SE9 30.10S  
BATON ROUGE PTCLDY 55 54 96 NE3 30.09S  
N.O. INTL ARPT MOCLDY 58 57 97 NE5 30.09S  
SLIDELL CLOUDY 53 52 96 N3 30.11R  

 
 
MARINE REPORTS  
 
STATION/POSITION TIME SKY/WX TEMP WIND PRES VSBY
 
AIR SEA DIR/SP/G  
(UTC) (F) (DEG/KT/KT) (MB) (MI)  
BUOY 30 S HIGH I NOT AVBL  
SEA RIM ST PARK 0900 60 110/ 9/ 12 1015.9S  
PORT ARTHUR 0924 59 54 80/ 3/ 5 1016.3  
TEXAS POINT 0924 60 57 110/ 11/ 12 1014.3  
CALCASIEU PASS 0924 61 59 130/ 12/ 15 1016.8  
LK CHARLES BEACH 0924 59 62 1017.1  
MARSH ISLAND NOT AVBL  
FRESH WATER LOCK NOT AVBL  
AMERADA PASS 0924 50 80/ 4/ 5 1018.4  

 
 
 
CLICK HERE TO GO TO PREVIOUS BULLETINS.

The Nexlab LA Page
The Nexlab TX Page Main Text Page